sat.trackr.live / text

‹ back to catalog

STARLINK-31428

NORAD 59367 · 2024-060V

PAYLOAD ACTIVE UNKNOWN

§ Identity

Operator
Country
US
Launch date
2024-03-31
Launch site
AFETR
Launch vehicle
Mass (kg)
RCS (m²)

Purposes: comms

External: N2YO · Heavens-Above · Gunter

§ Orbital elements

Epoch: 2026-05-25T04:23:47.133024Z

Period
94.27 min
Inclination
43.0050°
Eccentricity
0.0002244
Mean motion
15.27547104 rev/d
Perigee alt
481.6 km
Apogee alt
484.7 km
Semi-major
6,861.3 km
B*
1.7472e-4
RAAN
187.6822°
Arg perigee
287.8623°
Mean anomaly
72.1984°
Rev number
12,176

§ Raw data

STARLINK-314281 59367U 24060V   26145.18318441  .00004544  00000+0  17472-3 0  99902 59367  43.0050 187.6822 0002244 287.8623  72.1984 15.27547104121760

JSON: /api/v1/satellites/59367 · /tle

For live sub-satellite position, see the globe view (requires WebGL).

§ Visibility from observer

Set your observer location to see the next 7 days of passes ≥ 10°. The values pass through the URL so the page stays shareable.

No JS? Fill the form by hand. The geolocation button needs JavaScript.